Regional Weather Roundup
Issued by NWS Little Rock, AR

Home | Current Version | Previous Version | Text Only | Print | Product List | Glossary Off
Versions: 1 2 3 4 5 6 7 8 9 10 11 12 13 14 15 16 17 18 19 20 21 22 23 24 25 26 27 28 29 30 31 32 33 34 35 36 37 38 39 40 41 42 43 44 45 46 47 48 49 50

000
ASUS44 KLZK 250105
RWRLZK

WEATHER ROUNDUP FOR ARKANSAS
NATIONAL WEATHER SERVICE LITTLE ROCK AR
800 PM CDT SUN MAY 24 2015

NOTE: "FAIR" INDICATES FEW OR NO CLOUDS BELOW 12,000 FEET WITH NO
SIGNIFICANT WEATHER AND/OR OBSTRUCTIONS TO VISIBILITY.

ARZ001-003-010-029-250200-
NORTHWEST ARKANSAS

CITY           SKY/WX    TMP DP  RH WIND       PRES   REMARKS
FAYETTEVILLE   CLOUDY    62  62 100 VRB6      29.88R
FORT SMITH     CLOUDY    65  62  90 SE3       29.87R
HARRISON       CLOUDY    68  65  90 S10       29.86R
BENTONVILLE    CLOUDY    63  59  88 CALM      29.87S
ROGERS         CLOUDY    62  62 100 CALM      29.88R
SILOAM SPGS    CLOUDY    63  57  82 SE5       29.87S
HIGHFILL       CLOUDY    64  32  30 SE6       29.86S
SPRINGDALE     CLOUDY    63  63 100 CALM      29.89S
$$

ARZ004-005-016-250200-
NORTH CENTRAL ARKANSAS

CITY           SKY/WX    TMP DP  RH WIND       PRES   REMARKS
BATESVILLE     CLOUDY    70  64  83 SE7       29.93R
FLIPPIN        MOCLDY    70  64  83 E6        29.85R
MTN HOME       PTCLDY    67  65  93 SE7       29.87R
$$

ARZ040-041-250200-
WEST CENTRAL ARKANSAS

CITY           SKY/WX    TMP DP  RH WIND       PRES   REMARKS
MENA           CLOUDY    70  68  94 CALM      29.91R
MOUNT IDA      CLOUDY    72  67  84 CALM      29.89R
$$

ARZ009-017-025-026-028-250200-
NORTHEAST ARKANSAS

CITY           SKY/WX    TMP DP  RH WIND       PRES   REMARKS
CORNING        FOG       68  68 100 SW15      29.96R VSB 3/4
JONESBORO      CLOUDY    71  66  84 SW7       29.95R
NEWPORT        CLOUDY    71  68  90 S9        29.94F
WALNUT RIDGE     N/A    N/A N/A N/A MISG        N/A
$$

ARZ022-023-033-042-044-250200-
CENTRAL ARKANSAS

CITY           SKY/WX    TMP DP  RH WIND       PRES   REMARKS
LITTLE ROCK    LGT RAIN  72  67  84 S8        29.92R
N LITTLE ROCK  CLOUDY    71  70  97 S10G16    29.92R
JACKSONVILLE   DRIZZLE   72  70  94 SE7       29.92R
SEARCY         CLOUDY    70  67  90 S3        29.94R
HOT SPRINGS    CLOUDY    74  69  85 SE6       29.90R
RUSSELLVILLE   CLOUDY    72  67  84 SW6       29.89R
CLINTON        MOCLDY    72  68  88 SE6       29.91R
$$

ARZ036-250200-
EAST ARKANSAS

CITY           SKY/WX    TMP DP  RH WIND       PRES   REMARKS
WEST MEMPHIS   LGT RAIN  71  70  96 S7        29.97R
$$

ARZ050-053-066-070-073-250200-
SOUTHWEST ARKANSAS

CITY           SKY/WX    TMP DP  RH WIND       PRES   REMARKS
ARKADELPHIA    FAIR      74  72  93 SE7       29.91R
CAMDEN         LGT RAIN  72  66  83 CALM      29.94R
TEXARKANA      CLOUDY    73  68  84 S12       29.89R
EL DORADO      CLOUDY    73  68  84 SE7       29.95R
DE QUEEN       CLOUDY    74  70  87 CALM      29.87R
$$

ARZ056-057-069-250200-
SOUTHEAST ARKANSAS

CITY           SKY/WX    TMP DP  RH WIND       PRES   REMARKS
PINE BLUFF     LGT RAIN  73  70  90 S6        29.95R
STUTTGART      CLOUDY    73  66  78 MISG      29.95R
MONTICELLO     CLOUDY    73  71  93 S8        29.96S

$$





USA.gov is the U.S. government's official web portal to all federal, state and local government web resources and services.